Terminal Aerodrome Forecast
Issued by NWS Sterling, VA

Current Version | Previous Version | Graphics & Text | Print | Product List | Glossary On
Versions: 1 2 3 4 5 6 7 8 9 10 11 12 13 14 15 16 17 18 19 20 21 22 23 24 25
180
FTUS41 KLWX 241512 AAB
TAFIAD
TAF AMD
KIAD 241512Z 2415/2518 20010KT P6SM OVC080
     FM250000 20008KT P6SM BKN250
     FM250700 21004KT P6SM BKN250=

USA.gov is the U.S. government's official web portal to all federal, state and local government web resources and services.